Вернуться в каталог

SL-16 DEB

АктивенLEO
NORAD 39902·DEBRIS·🇷🇺 Russia

Запущен Mar 26, 1993 с Baikonur Cosmodrome

Loading…

Ближайшие Пролёты (ближайшие 24 часа)

TLE

СвежийSource: Space-Track

Эпоха: Sep 13, 2026, 13:37 UTC

1 39902U 93016CC  26256.56792766  .00000038  00000-0  74323-4 0  9995
2 39902  71.0016  97.3807 0189657  31.7260   0.1072 13.74614333615534

Отслеживайте SL-16 DEB в реальном времени с AllMySat

Download on the App Store